Location: Ahstedt
(52.2048°N, 10.1060°E)
Time: 00:45:35
(UTC+00:00)

Cosmos 1656 Rocket - Pass Details

Date: 18 January 2026
Orbit: 794 x 843 km, 71.1° (Epoch: 17 February)

Event Time Altitude Azimuth Distance (km) Brightness Sun altitude
Rises 05:59:17 0° 207° (SSW) 3,390 6.8 -11.8°
Reaches altitude 10° 06:01:43 10° 207° (SSW) 2,459 6.0 -11.4°
Maximum altitude 06:07:23 87° 120° (ESE) 849 3.8 -10.6°
Drops below altitude 10° 06:13:03 10° 31° (NNE) 2,458 6.3 -9.8°
Sets 06:15:29 0° 32° (NNE) 3,390 7.0 -9.4°
